• Join FlightAware (Why Join?)
  • Login
  • US Flag 
08:45PM EDT


 

Airport Tracker/Info


-or-


 

Live Flight TrackerFlight Track Log ✈ PDT4236 ✈ 19-May-2013 ✈ KHTS - KCLT

Flight Track Log - Related Links

Times and Time Zones

All times are in EDT time to prevent confusion due to time zone crossing. See the PDT4236 flight status page for this flight to view local times or setup timezone preferences in your user account.

Time Position Orientation Groundspeed Altitude Reporting Facility
EDT Latitude Longitude Course Direction KTS MPH feet Rate Location/Type
04:40PM 38.3961 -82.4561 93° East 185 213 4,100  Level Indianapolis Center
04:41PM 38.3928 -82.3883 94° East 190 219 5,100 1,020 Climbing Indianapolis Center
04:42PM 38.3878 -82.3175 95° East 197 227 6,300 1,200 Climbing Indianapolis Center
04:43PM 38.3833 -82.2528 95° East 188 216 7,600 1,140 Climbing Indianapolis Center
04:44PM 37.9633 -82.3452 90° East  Level Estimated
04:44PM 38.3789 -82.1856 95° East 189 217 8,700  Level Indianapolis Center
04:45PM 38.3739 -82.1169 95° East 193 222 10,000 1,260 Climbing Indianapolis Center
04:46PM 38.3694 -82.0356 94° East 193 222 11,400 1,200 Climbing Indianapolis Center
04:47PM 38.3642 -81.9672 96° East 194 223 12,500 960 Climbing Indianapolis Center
04:48PM 38.3592 -81.8978 95° East 197 227 13,500 960 Climbing Indianapolis Center
04:49PM 38.3542 -81.8281 95° East 198 228 14,500 720 Climbing Indianapolis Center
04:50PM 38.3464 -81.7589 98° East 202 232 15,000 240 Climbing Indianapolis Center
04:51PM 38.2997 -81.7022 136° Southeast 239 275 15,000  Level Indianapolis Center
04:52PM 38.2408 -81.6328 137° Southeast 254 292 15,100  Climbing Indianapolis Center
04:53PM 38.2017 -81.5597 124° Southeast 252 290 15,000 -60 Descending Indianapolis Center
04:54PM 38.1775 -81.4783 111° Southeast 258 297 15,000  Level Indianapolis Center
04:55PM 38.1767 -81.3869 91° East 259 298 15,000  Level Indianapolis Center
04:56PM 38.1786 -81.2956 88° East 259 298 15,000  Level Indianapolis Center
04:57PM 38.1869 -81.2039 83° East 261 300 15,000  Level Indianapolis Center
04:59PM 38.1997 -81.0936 82° East 265 305 15,000  Level Indianapolis Center
05:00PM 38.2094 -81.0022 82° East 263 303 15,000  Level Indianapolis Center
05:00PM 38.2119 -80.9514 86° East 265 305 15,000  Level Washington Center
05:01PM 38.2097 -80.8614 92° East 259 298 15,100  Climbing Washington Center
05:02PM 38.1781 -80.7772 116° Southeast 254 292 15,100  Level Washington Center
05:03PM 38.1219 -80.7231 143° Southeast 242 278 15,100  Level Washington Center
05:04PM 38.0575 -80.6686 146° Southeast 249 287 15,100  Level Washington Center
05:05PM 37.9969 -80.6197 148° Southeast 255 293 15,100  Level Washington Center
05:06PM 37.9406 -80.5711 146° Southeast 250 288 15,100  Level Washington Center
05:07PM 37.8822 -80.5225 147° Southeast 250 288 15,100  Level Washington Center
05:08PM 37.8278 -80.4769 147° Southeast 250 288 15,100  Level Washington Center
05:09PM 37.7711 -80.4311 147° Southeast 250 288 15,100  Level Washington Center
05:10PM 37.7106 -80.3800 146° Southeast 250 288 15,100  Level Washington Center
05:11PM 37.6458 -80.3261 147° Southeast 250 288 15,100  Level Washington Center
05:12PM 37.5875 -80.2753 145° Southeast 250 288 15,100  Level Washington Center
05:13PM 37.5267 -80.2269 148° Southeast 250 288 15,100  Level Washington Center
05:14PM 37.4681 -80.1789 147° Southeast 250 288 15,100  Level Washington Center
05:15PM 37.4136 -80.1339 147° Southeast 250 288 15,100  Level Washington Center
05:16PM 37.3528 -80.0831 146° Southeast 250 288 15,100  Level Washington Center
05:17PM 37.2872 -80.0506 158° South 250 288 15,100  Level Washington Center
05:18PM 37.2203 -80.0022 150° Southeast 256 295 15,100  Level Washington Center
05:19PM 37.1572 -79.9597 152° Southeast 256 295 15,100  Level Washington Center
05:20PM 37.0961 -79.9169 151° Southeast 256 295 15,100  Level Washington Center
05:21PM 37.0369 -79.8825 155° Southeast 256 295 15,100 -120 Level Washington Center
05:22PM 36.9714 -79.8478 157° South 256 295 14,900 -540 Descending Washington Center
05:23PM 36.8994 -79.8125 159° South 262 302 14,100 -840 Descending Washington Center
05:25PM 36.8193 -79.8132 189° South  Level FlightAware Approximate
05:32PM 36.3613 -79.9071 189° South  Level FlightAware Approximate
05:33PM 36.2958 -79.9204 189° South  Level FlightAware Approximate
05:34PM 36.2304 -79.9337 189° South  Level FlightAware Approximate
05:35PM 36.1650 -79.9470 189° South  Level FlightAware Approximate
05:36PM 36.0999 -79.9625 191° South  Level FlightAware Approximate
05:37PM 36.0339 -79.9667 180° South  Level FlightAware Approximate
05:38PM 35.9934 -80.0227 229° Southwest  Level FlightAware Approximate
05:39PM 35.9531 -80.0792 229° Southwest  Level FlightAware Approximate
05:40PM 35.9128 -80.1356 229° Southwest  Level FlightAware Approximate